User: anonymous   Login
Location: Muenchen
(48.1800°N, 11.5800°E)
Time: 17:17:46
(UTC+02:00)
Language:

Iridium 73 - Orbit

View from above orbital plane
View from above orbital plane
View from above satellite
View from above satellite

Ground track
Ground track

The orbit data is extracted from the following two-line orbital elements,

1 25344U 98032C   15125.54690039  .00000326  00000-0  81082-4 0  9994
2 25344 086.4449 169.8376 0002980 100.1821 059.3364 14.48712813895536
Epoch (UTC): 05 May 2015 13:07:32
Eccentricity: 0.0002980
inclination: 86.4449°
perigee height: 728 km
apogee height: 732 km
right ascension of ascending node: 169.8376°
argument of perigee: 100.1821°
revolutions per day: 14.48712813
mean anomaly at epoch: 59.3364°
orbit number at epoch: 89553

The dashed part of the orbit path shows where the satellite is in the earth's shadow,  

DLR